Flag for Germany Weather past 2 weeks in Fürstenwalde/Spree, Brandenburg, Germany

39 °F

Passing clouds.

Feels Like: 36 °F
Forecast: 30 / 38 °F
Wind: 5 mph from Southwest

Location: Berlin-Schoenefeld

Current Time: Nov 26, 2015 at 6:44:34 AM

Latest Report: Nov 26, 2015 at 5:50 AM

Visibility: 6 mi

Pressure: 29.77 "Hg

Humidity: 93%

Dew point: 37 °F

Location of Fürstenwalde/SpreeLocation

Historic Weather in Fürstenwalde/Spree — Graph


Fürstenwalde/Spree temperature yesterday

Maximum temperature yesterday: 39 °F (at 12:20 PM)
Minimum temperature yesterday: 34 °F (at 1:20 AM)
Average temperature yesterday: 38 °F

Past Weeks' High & Low Weather Summary

High59 °F (Nov 11, 12:50 PM)100% (Nov 11, 8:50 AM)30.27 "Hg (Nov 11, 8:50 AM)
Low27 °F (Nov 23, 10:50 PM)62% (Nov 14, 1:50 PM)29.33 "Hg (Nov 21, 1:50 PM)
Average46 °F86%29.83 "Hg
* Reported Nov 11 4:20 AM — Nov 26 4:50 AM, Fürstenwalde/Spree, Weather by CustomWeather, © 2015

Note: Actual official high and low records may vary slightly from our data, if they occured in-between our weather recording intervals... More about our weather records


Fürstenwalde/Spree weather history for previous 24 hours

Time TempWeatherWind HumidityBarometerVisibility
4:50 AM
Thu, Nov 26
39 °FPassing clouds.5 mph93%29.74 "HgN/A
4:20 AM39 °FPassing clouds.3 mph93%29.74 "HgN/A
3:50 AM37 °FPassing clouds.5 mph100%29.74 "HgN/A
3:20 AM39 °FPassing clouds.5 mph93%29.74 "HgN/A
2:50 AM39 °FPartly cloudy.5 mph93%29.74 "HgN/A
2:20 AM37 °FPartly cloudy.3 mph100%29.74 "HgN/A
1:20 AM39 °FPartly cloudy.5 mph93%29.71 "HgN/A
12:20 AM39 °FPassing clouds.3 mph93%29.71 "HgN/A
11:50 PM
Wed, Nov 25
39 °FOvercast.3 mph93%29.71 "HgN/A
11:20 PM39 °FPassing clouds.3 mph87%29.71 "HgN/A
10:50 PM39 °FPassing clouds.5 mph87%29.68 "HgN/A
10:20 PM39 °FPartly cloudy.5 mph87%29.68 "HgN/A
9:50 PM39 °FPassing clouds.6 mph87%29.68 "HgN/A
9:20 PM39 °FLight rain. Passing clouds.6 mph87%29.68 "HgN/A
8:50 PM39 °FLight rain. Passing clouds.6 mph87%29.68 "HgN/A
8:20 PM39 °FPassing clouds.6 mph87%29.68 "HgN/A
7:50 PM39 °FPassing clouds.6 mph87%29.68 "HgN/A
7:20 PM39 °FPassing clouds.5 mph87%29.68 "HgN/A
6:50 PM39 °FPassing clouds.6 mph87%29.68 "HgN/A
6:20 PM39 °FPassing clouds.6 mph87%29.65 "HgN/A
5:50 PM39 °FPassing clouds.7 mph87%29.65 "HgN/A
5:20 PM39 °FPassing clouds.8 mph81%29.65 "HgN/A
4:50 PM39 °FPassing clouds.7 mph87%29.65 "HgN/A
4:20 PM39 °FPassing clouds.7 mph81%29.65 "HgN/A
3:50 PM39 °FPartly sunny.7 mph81%29.65 "HgN/A
3:20 PM39 °FPartly sunny.5 mph81%29.65 "HgN/A
2:50 PM39 °FLight rain. Partly sunny.7 mph81%29.65 "HgN/A
2:20 PM39 °FPartly sunny.7 mph81%29.65 "HgN/A
1:50 PM39 °FPartly sunny.8 mph81%29.65 "HgN/A
1:20 PM39 °FPartly sunny.9 mph81%29.65 "HgN/A
12:50 PM39 °FPartly sunny.10 mph75%29.65 "HgN/A
12:20 PM39 °FPartly sunny.10 mph81%29.68 "HgN/A
11:50 AM37 °FLight rain. Partly sunny.12 mph81%29.68 "HgN/A
11:20 AM37 °FPartly sunny.12 mph81%29.68 "HgN/A
10:50 AM37 °FPartly sunny.12 mph81%29.68 "HgN/A
10:20 AM37 °FOvercast.12 mph81%29.68 "HgN/A
9:50 AM37 °FLight rain. Overcast.10 mph81%29.68 "HgN/A
9:20 AM36 °FOvercast.9 mph81%29.68 "HgN/A
8:50 AM36 °FOvercast.8 mph81%29.68 "HgN/A
8:20 AM36 °FOvercast.7 mph81%29.71 "HgN/A
7:50 AM36 °FOvercast.7 mph81%29.71 "HgN/A
7:20 AM36 °FOvercast.8 mph81%29.71 "HgN/A
6:50 AM36 °FOvercast.8 mph81%29.71 "HgN/A
6:20 AM36 °FPassing clouds.9 mph81%29.71 "HgN/A
Weather by CustomWeather, © 2015

See weather overviewHow to use our weather pages